Theta_e
327 327 327 327 327 327 327 327 327 327 327 328 328 328 328 328 328 329 329 329 329 329 329 330 329 330 330 330 331 331 331 331 330 331 331 330 330 329 329 329 329 329 329 329 328 327 326 323 318 315 314 315 315 315 316 318 320 320 320 322 323 325 329 337 340 341 341 341 341 341 341 341 341 341 342 343 345 346 348 349 350 352 352 352 352 352 352 352 352 352 352 350 349 348 348 347 347 347 347 347 347 347 348
327 326 326 326 326 326 327 327 327 327 327 328 328 328 328 328 328 329 329 329 329 329 329 329 330 330 330 330 331 330 330 330 330 330 330 329 329 329 329 329 329 329 328 328 327 326 325 321 317 314 313 314 314 315 316 318 319 320 321 324 326 329 334 338 340 340 341 341 341 341 341 341 341 341 341 342 343 344 346 348 349 351 351 352 352 352 352 352 353 353 352 352 350 349 348 348 347 347 346 347 347 347 348
326 326 326 326 326 326 326 327 327 327 327 327 327 327 328 328 328 328 329 329 329 329 329 330 329 330 330 330 330 330 330 330 330 330 329 329 329 329 329 328 328 328 328 327 326 325 324 321 317 314 313 313 314 315 316 318 320 321 322 327 328 331 336 338 339 339 340 340 340 340 340 341 341 341 341 341 342 343 344 346 347 349 350 351 350 351 352 353 353 353 353 353 352 350 349 348 348 347 347 347 347 347 348
326 326 325 325 326 326 326 327 327 328 328 327 327 328 328 328 328 328 328 329 329 329 329 330 330 330 330 330 330 330 329 329 329 329 329 328 328 328 328 328 327 327 327 326 326 324 320 320 317 315 313 313 313 314 315 319 321 322 324 328 331 333 336 338 338 338 338 339 339 339 339 340 340 341 341 341 341 342 343 344 346 348 349 350 350 349 351 352 352 352 353 353 352 351 350 349 349 348 347 347 347 346 347
325 325 325 325 325 326 326 327 327 328 328 328 328 328 328 328 328 328 329 329 329 329 330 330 330 331 331 330 330 330 330 330 329 329 329 328 328 328 327 327 326 326 326 326 325 323 319 318 316 314 312 313 314 315 316 319 321 322 324 326 330 333 336 336 336 336 337 337 338 338 339 339 339 340 341 341 341 341 341 343 344 346 348 349 349 349 350 350 351 351 352 353 353 352 351 350 349 349 348 347 347 347 347
325 325 325 325 325 325 326 327 327 328 328 328 328 328 328 328 328 329 329 329 329 329 329 330 330 331 331 330 330 330 330 330 330 329 329 328 327 327 326 326 325 325 325 325 325 323 320 316 314 313 313 313 314 315 316 319 320 321 323 324 329 334 335 335 335 336 336 337 337 337 338 338 338 339 340 340 340 340 341 342 343 345 346 347 348 349 349 349 350 350 351 352 353 352 352 350 350 349 348 348 348 347 347
324 324 324 324 325 325 326 327 327 328 328 328 328 328 328 328 328 329 329 329 329 329 330 330 330 330 330 330 330 330 330 329 330 329 328 328 327 326 325 325 325 324 325 325 324 323 320 314 313 314 313 313 314 315 315 318 319 320 322 324 330 334 335 335 335 335 335 336 336 337 337 337 338 337 339 339 339 340 340 341 342 343 344 345 346 348 348 348 349 349 350 352 352 353 352 352 351 349 349 349 349 349 348
324 324 324 324 324 325 325 326 326 327 328 328 328 328 328 328 328 329 328 329 328 329 329 329 329 329 329 330 330 330 329 329 329 328 328 327 326 325 325 324 324 324 324 324 324 323 321 316 314 314 313 314 315 315 315 316 318 319 321 324 329 333 334 334 334 334 334 335 335 336 336 336 337 337 337 338 338 339 339 339 340 341 343 343 345 345 347 347 347 348 349 350 351 352 352 352 351 350 349 349 349 349 349
323 323 323 324 324 325 325 326 326 327 327 328 328 328 328 328 328 328 328 328 328 328 328 328 329 329 329 329 329 329 329 328 328 327 327 326 325 324 324 324 324 323 324 324 323 323 322 317 315 313 314 314 315 316 316 316 317 319 321 325 329 331 334 334 333 334 334 334 335 335 335 335 336 336 336 337 338 338 338 338 339 340 341 342 343 344 346 347 347 347 348 349 350 351 352 351 351 351 350 350 350 349 349
323 323 323 323 323 324 325 325 326 326 327 327 328 328 328 328 328 328 328 328 327 327 327 327 327 327 328 328 328 328 328 327 327 326 325 325 324 323 323 323 323 323 323 324 323 323 322 317 314 313 314 314 315 316 317 316 317 319 320 327 330 332 333 333 333 334 334 334 334 335 335 334 335 335 336 336 337 337 338 338 338 338 339 341 342 343 344 346 347 347 347 348 349 349 351 351 351 350 350 350 350 350 350
322 322 322 322 323 323 324 325 326 326 327 327 328 328 328 328 328 328 328 327 327 327 327 327 327 327 327 327 327 327 327 326 325 324 324 324 323 323 323 323 323 323 323 323 323 322 322 316 313 312 314 314 315 316 315 316 317 318 321 327 331 333 333 333 333 334 334 334 334 334 334 334 334 334 335 335 335 336 337 337 337 338 338 339 340 342 343 345 345 347 347 347 348 348 349 350 351 351 350 351 350 350 350
322 322 321 322 323 323 323 324 325 326 327 327 327 328 328 327 327 327 327 326 327 326 326 326 326 326 326 326 326 325 325 324 324 324 323 323 323 323 323 323 323 323 323 323 323 321 319 315 313 312 313 313 314 315 315 316 316 317 321 328 331 332 332 333 333 334 334 334 334 334 333 333 333 333 333 334 335 335 336 336 337 337 338 338 339 340 341 342 344 345 347 346 347 348 348 349 350 351 351 350 351 351 351
321 321 321 321 322 323 323 324 324 325 326 326 327 327 327 326 326 326 326 326 326 326 326 326 325 325 324 324 324 324 323 323 323 323 323 323 323 324 324 324 324 323 323 322 321 319 316 313 312 311 311 313 313 314 317 316 316 318 323 329 332 332 333 333 333 333 334 334 334 334 333 332 332 333 333 333 334 335 335 335 336 336 337 337 338 339 340 341 342 344 345 346 347 347 347 348 349 350 351 351 351 351 351
321 321 319 320 321 322 322 323 323 324 325 326 326 326 326 325 325 325 325 325 325 326 325 325 325 324 323 323 323 323 323 323 322 323 323 323 324 324 324 324 323 323 323 321 318 315 314 312 311 311 311 313 313 314 319 317 316 319 328 331 332 332 332 332 333 333 333 333 333 333 333 333 332 332 332 333 333 333 335 335 335 336 336 336 337 338 339 340 341 342 344 345 346 347 347 347 348 348 349 350 350 351 351
320 319 319 320 321 321 322 322 323 323 324 325 325 325 325 324 324 324 325 325 325 325 325 324 324 323 322 322 322 322 322 322 323 323 323 324 324 324 325 324 324 323 322 317 314 312 312 310 310 312 312 312 312 313 317 316 317 321 331 331 332 332 332 332 333 333 333 333 333 333 333 332 332 332 332 332 332 333 333 335 335 336 336 336 336 337 338 339 339 341 342 343 344 346 347 347 347 347 348 348 349 350 350
320 319 318 319 320 320 321 321 322 322 323 324 324 324 324 323 324 324 324 324 324 324 324 324 323 322 322 321 321 321 321 322 322 323 323 324 324 324 324 324 323 322 319 314 312 311 310 310 310 311 313 310 311 313 316 315 319 324 332 332 332 332 332 333 333 333 333 333 333 333 333 332 332 332 332 332 332 332 333 334 334 335 336 336 336 336 337 338 339 339 340 342 343 344 346 346 347 347 347 347 347 348 348
318 318 318 318 319 319 320 321 321 321 322 323 323 323 323 322 323 323 323 324 324 323 323 323 322 321 321 321 321 320 319 320 320 321 322 323 323 323 324 324 322 319 313 312 312 310 310 310 310 312 312 310 310 313 315 315 320 328 331 332 332 333 333 333 333 333 333 333 333 333 333 332 332 332 332 332 332 332 332 333 334 335 336 336 336 336 336 337 338 339 339 340 341 342 344 345 346 347 347 347 346 347 347
316 317 317 318 318 319 319 320 320 320 321 322 322 322 322 322 322 323 323 323 323 323 323 322 321 321 321 321 320 319 317 317 318 319 320 321 322 323 323 322 319 314 311 312 311 310 310 310 311 312 312 310 310 312 316 316 322 329 331 332 332 333 334 334 334 334 334 334 333 333 333 332 332 331 331 332 332 332 332 332 334 334 335 336 336 336 336 336 337 338 338 339 339 341 342 344 345 345 346 346 346 346 346
314 316 316 316 317 318 318 319 319 320 320 320 321 321 321 321 321 322 322 322 322 322 322 321 321 321 321 321 319 317 316 315 317 318 318 319 320 321 320 319 315 312 311 311 310 310 310 310 311 312 312 311 311 312 315 317 323 328 330 331 332 333 333 334 334 334 334 334 333 333 333 332 332 332 331 332 332 332 332 333 333 334 335 336 336 336 336 336 336 337 337 338 339 339 341 342 343 345 345 345 345 346 345
310 311 314 314 315 316 316 317 318 318 319 319 319 319 320 320 320 321 321 321 321 321 321 321 321 320 320 319 317 315 315 315 316 318 317 317 317 317 317 316 314 312 312 311 310 310 311 311 312 312 312 311 311 313 314 316 322 328 330 331 332 333 333 334 334 335 334 334 333 333 333 332 332 332 332 332 331 331 332 332 333 333 334 335 336 335 336 336 336 336 336 337 338 338 339 340 341 343 344 345 345 345 345
303 304 306 309 310 311 310 311 312 315 316 317 315 312 312 315 317 318 319 318 319 320 321 320 319 318 318 318 317 316 316 315 317 318 318 317 316 315 316 316 315 315 313 311 311 312 312 312 313 313 312 312 312 312 313 317 323 328 330 331 332 333 333 333 334 335 334 334 333 333 333 332 332 332 332 332 331 331 332 332 332 333 333 334 334 335 335 335 335 336 336 336 337 337 337 339 340 341 343 343 344 344 344
300 301 301 302 303 304 304 303 305 308 311 315 310 305 304 307 310 312 315 312 312 315 317 318 317 316 317 317 317 317 317 317 317 318 318 318 317 316 316 316 316 315 313 312 312 313 313 314 314 314 313 313 313 313 313 321 326 328 330 331 333 333 334 334 334 334 335 334 333 333 333 332 332 332 332 332 332 332 331 331 332 332 332 333 333 334 334 334 335 335 335 335 336 336 337 337 338 339 341 341 342 343 344
301 301 300 301 301 302 302 301 302 303 305 311 308 304 304 304 305 305 308 306 306 309 313 316 317 317 316 317 317 317 317 318 318 318 318 318 318 316 315 315 314 314 313 312 312 313 313 315 315 315 315 314 314 314 315 323 327 329 331 332 333 334 335 335 335 335 335 335 334 333 333 333 332 332 332 332 332 332 332 331 331 331 332 332 333 333 333 334 334 334 334 334 335 335 336 337 337 338 338 340 341 341 343
300 301 301 301 301 302 301 301 302 303 303 305 305 304 305 304 303 303 304 304 305 306 310 315 317 316 315 316 316 317 317 318 319 319 318 317 316 316 314 313 312 311 312 310 311 313 314 315 316 316 316 315 315 316 317 324 329 330 332 333 334 335 336 336 336 336 335 335 334 334 334 333 333 332 332 332 332 332 331 331 331 331 331 332 332 333 333 333 334 334 334 334 334 334 335 336 337 337 338 338 339 340 341
300 301 300 301 301 301 301 301 302 302 302 302 303 304 303 303 302 302 303 306 306 306 307 312 314 313 311 314 315 315 317 318 318 318 317 316 315 315 313 312 311 310 310 310 311 312 315 316 317 318 318 317 317 318 321 327 330 332 332 333 334 335 336 336 337 337 336 336 335 335 334 334 333 333 332 332 332 331 331 331 331 331 331 331 331 331 332 333 333 333 333 334 334 334 334 335 335 336 337 337 338 339 340
300 301 300 300 300 301 301 301 301 302 302 302 303 303 302 302 302 303 304 306 307 306 306 309 310 309 309 310 312 314 315 316 316 315 315 314 314 313 313 312 311 310 309 310 311 313 316 318 319 320 319 319 319 321 324 328 331 332 332 333 333 334 336 337 337 337 337 337 336 335 335 334 335 334 333 333 332 332 331 331 331 331 330 330 331 331 331 332 332 333 333 333 334 334 334 334 334 335 336 336 337 338 338
300 301 300 300 300 300 300 300 301 302 302 302 303 303 302 302 303 304 304 306 306 305 304 305 306 307 308 308 308 310 313 314 314 313 313 313 312 312 311 311 311 311 310 311 313 315 319 320 321 321 320 321 322 323 324 327 330 331 331 331 332 333 335 336 336 337 338 337 337 336 336 335 336 335 335 334 333 333 332 331 331 331 331 330 330 330 330 331 331 331 332 332 333 333 334 334 334 334 335 335 336 337 337
300 300 299 299 300 300 300 301 301 302 302 302 303 303 303 302 303 305 305 306 305 304 305 304 305 307 307 308 307 308 309 311 312 312 312 313 312 311 310 311 311 311 311 311 314 317 320 321 322 322 322 322 323 323 323 326 328 329 329 329 330 332 333 334 335 336 337 338 338 338 337 337 337 336 336 335 335 333 333 332 331 331 331 331 330 330 330 330 330 331 331 331 332 332 333 334 334 334 334 334 335 336 336
299 300 300 300 300 300 300 301 301 301 302 302 302 303 304 303 304 305 305 306 305 305 306 306 306 307 307 308 308 308 308 310 310 311 311 313 312 310 310 311 311 311 312 314 316 319 321 322 322 322 322 323 323 322 322 323 325 327 327 328 329 330 331 332 333 334 336 337 338 338 339 338 338 338 337 336 335 334 333 332 332 332 332 331 331 331 330 330 330 330 330 331 331 332 332 333 333 334 334 334 334 334 335
298 299 299 298 299 300 300 300 300 301 302 302 302 303 303 304 305 305 305 305 305 305 304 304 304 305 305 306 306 307 310 311 311 310 310 311 311 311 311 311 311 312 314 317 319 321 321 321 321 322 322 323 322 322 321 321 322 324 325 326 327 328 329 330 331 332 333 335 336 338 339 339 340 339 339 338 336 335 333 333 332 332 332 332 332 332 331 331 331 331 331 331 331 331 331 332 333 333 333 333 333 333 334
298 298 299 299 299 299 300 300 300 301 301 302 302 303 303 303 304 304 305 305 305 304 303 304 305 305 306 306 306 308 310 310 310 309 309 310 310 311 311 312 313 314 317 319 321 322 322 321 321 321 323 323 322 321 320 319 320 321 324 324 325 325 327 328 329 330 331 333 334 336 337 339 340 341 340 339 337 336 334 333 333 332 332 332 333 333 333 332 332 332 332 331 331 331 332 332 332 332 333 333 333 333 333
298 298 298 299 299 299 300 300 300 301 301 301 302 302 303 302 303 303 303 304 304 304 304 305 306 306 306 307 307 308 309 310 310 309 309 309 310 311 312 313 314 315 318 320 321 323 324 323 322 321 321 322 321 321 320 319 317 317 320 322 323 323 325 325 327 327 329 331 332 334 336 338 339 341 342 341 339 337 335 334 333 333 332 333 333 333 333 333 333 333 333 333 333 332 332 332 332 333 333 333 333 333 333
298 298 298 298 299 299 299 300 300 300 301 301 301 301 302 302 302 302 303 303 302 301 302 303 304 304 304 306 307 307 308 307 308 309 308 309 310 311 311 312 314 317 318 320 321 323 323 322 320 319 319 319 320 320 320 318 316 315 317 319 320 322 323 323 324 325 327 328 330 333 335 337 338 339 341 341 340 338 336 335 334 333 333 333 333 333 334 334 334 334 334 334 334 334 334 334 334 333 333 333 333 333 333
298 298 297 297 298 299 298 299 299 300 300 300 300 300 299 299 300 300 300 301 301 300 300 301 301 303 303 305 305 306 307 306 307 308 308 309 310 311 311 313 314 315 317 319 321 321 322 320 319 318 317 317 318 318 319 318 317 316 315 316 317 319 321 321 322 323 324 326 328 331 333 335 337 338 339 341 341 340 338 336 335 334 334 334 333 334 334 334 334 334 335 335 335 336 335 335 334 334 334 334 333 333 333
297 297 297 297 298 298 298 298 299 300 300 300 299 298 297 298 299 299 300 300 300 300 300 301 302 302 303 304 304 305 305 305 305 306 307 308 310 310 311 312 313 314 315 317 319 320 320 319 318 316 314 315 315 316 317 318 317 316 316 316 316 317 319 319 320 321 322 324 326 329 331 333 335 336 337 339 340 340 338 336 335 335 335 335 335 334 334 334 335 335 336 336 336 336 336 336 335 335 334 334 334 334 334
297 297 297 297 298 298 300 299 299 299 298 299 299 298 297 298 300 301 302 302 302 302 302 302 303 303 303 303 304 304 305 305 306 307 307 308 309 310 310 310 310 312 313 315 317 318 318 317 316 314 313 312 313 315 317 318 318 317 316 315 315 316 315 317 318 319 320 321 324 326 329 331 333 335 336 338 339 339 338 337 336 336 336 336 336 336 336 336 336 337 338 338 338 338 338 337 336 336 335 335 335 334 334
297 297 297 297 297 297 298 299 298 297 296 298 299 299 299 300 301 301 302 301 301 301 302 302 304 305 305 304 304 304 305 305 306 308 308 308 309 309 309 308 309 310 311 313 315 316 316 316 315 313 311 311 312 313 315 317 318 317 317 316 315 314 313 313 314 316 317 319 321 324 326 329 331 333 335 336 337 338 338 338 337 337 337 337 337 337 338 338 338 338 339 340 340 340 339 338 338 337 337 336 336 335 335
296 297 297 296 296 296 298 298 297 296 297 298 299 300 300 301 301 301 301 301 301 301 301 302 303 304 304 303 304 304 303 304 305 306 307 307 308 308 308 308 308 309 310 311 313 314 314 314 314 313 311 310 310 311 312 315 316 316 317 316 315 315 314 312 312 313 314 316 319 321 323 326 328 330 333 334 336 336 337 338 338 338 338 339 339 339 339 339 340 340 340 341 341 341 340 340 339 339 338 338 337 337 337
296 296 297 297 296 296 297 297 296 296 297 298 299 299 298 299 300 300 301 300 300 301 301 301 301 302 303 302 303 303 304 303 304 305 305 306 306 306 306 307 308 308 308 309 310 311 311 312 313 313 311 310 309 309 310 311 312 314 316 316 315 315 315 313 312 311 312 314 315 318 321 323 325 327 329 331 333 334 336 336 337 337 337 337 338 338 339 338 339 339 339 339 339 339 339 339 338 338 339 339 339 339 338
296 296 297 297 297 297 297 295 295 295 297 298 299 298 296 299 300 300 300 300 300 301 300 300 301 302 302 302 303 303 303 303 304 305 305 305 305 305 305 306 306 306 307 307 308 308 309 310 310 311 311 310 309 308 308 308 309 311 313 315 315 315 315 314 312 311 311 312 313 315 318 320 322 324 326 328 330 331 333 334 334 334 335 335 336 336 336 336 336 336 336 337 337 337 337 337 337 338 338 338 338 339 340
296 296 297 297 297 297 296 294 294 296 298 298 298 299 298 299 299 299 299 299 300 301 300 300 300 301 301 302 302 303 303 304 304 304 304 304 304 304 303 304 305 305 306 306 306 307 307 308 308 309 310 309 309 308 306 307 307 308 310 312 313 314 314 314 313 312 311 310 311 313 314 318 320 321 323 325 326 328 329 330 331 332 332 332 332 333 334 334 334 335 335 336 336 337 337 338 338 338 338 338 338 338 339
295 296 296 296 296 296 294 294 294 296 297 298 298 299 299 299 299 299 297 298 299 301 301 300 299 300 300 301 302 302 302 304 304 303 304 304 303 303 302 303 304 304 304 305 305 305 305 306 307 308 309 308 308 307 306 306 306 306 308 309 311 313 313 314 314 312 311 310 310 311 312 315 317 319 320 322 323 325 326 327 328 329 330 330 330 330 331 332 333 334 335 335 336 337 338 338 338 339 340 339 339 338 338
295 295 295 296 296 295 293 294 295 296 297 297 298 298 299 299 299 298 298 298 299 300 301 300 300 299 300 300 301 301 301 302 303 303 303 303 303 303 302 302 302 303 303 303 303 304 304 305 306 307 308 307 307 306 305 305 305 305 306 307 308 310 312 313 313 312 311 310 310 310 310 312 314 316 317 318 320 321 322 324 325 327 328 328 328 328 329 330 331 332 333 335 335 336 338 338 339 340 341 340 339 339 338
295 294 294 294 294 294 293 295 295 296 297 297 298 298 298 298 298 298 298 298 299 300 301 300 300 300 300 300 300 300 300 300 300 301 301 302 302 302 302 302 301 301 302 302 302 302 303 304 306 307 307 306 306 305 305 304 304 304 305 306 307 308 310 311 312 312 311 310 309 309 309 309 311 313 315 315 317 318 319 321 322 324 325 326 326 326 326 327 328 329 331 333 333 335 336 337 339 340 341 341 341 340 339
296 294 293 293 293 293 293 294 295 296 297 297 297 297 298 298 298 298 299 299 299 299 299 300 300 300 300 300 300 300 299 299 299 299 298 300 301 301 301 301 301 301 301 301 301 301 302 303 304 304 305 305 305 305 305 305 304 304 304 305 306 307 308 309 311 311 312 310 309 309 309 308 308 309 310 312 313 314 316 318 319 321 322 323 324 323 323 323 325 326 328 330 332 333 335 337 338 339 341 342 342 341 341
295 294 295 293 293 293 293 293 295 297 297 297 298 298 298 298 298 298 299 299 299 299 298 298 299 300 300 300 300 299 299 298 298 299 298 298 299 300 301 300 301 301 300 300 301 301 300 302 302 303 303 304 304 304 304 305 304 303 304 304 304 305 307 308 309 310 311 310 309 308 308 307 307 307 308 308 309 310 312 315 317 318 320 321 321 321 321 321 321 323 325 328 329 331 333 335 337 339 340 341 342 342 342
295 294 295 294 293 293 292 293 294 296 297 297 298 298 297 297 297 297 297 298 299 299 298 297 298 299 301 302 301 300 299 299 298 297 297 297 298 299 301 299 299 300 300 300 300 300 300 300 301 301 301 302 303 303 303 304 304 303 303 303 304 305 305 307 307 309 310 310 309 308 307 307 306 306 307 307 307 308 310 312 314 316 317 318 318 319 319 319 319 320 322 325 327 329 331 334 336 338 340 341 341 342 342
296 294 294 293 292 293 293 293 294 296 296 297 297 296 296 296 296 296 295 296 297 299 300 300 299 298 300 301 301 300 300 299 298 297 296 296 296 297 298 297 297 297 299 299 299 299 300 298 298 299 300 301 301 302 302 303 303 303 303 303 304 303 304 305 306 307 309 310 309 307 307 306 306 306 306 306 306 307 308 309 311 313 315 315 316 316 316 316 316 317 319 322 324 326 329 332 334 337 339 339 340 341 341
296 296 293 293 293 293 294 293 295 297 296 298 297 296 295 295 296 296 297 296 296 297 298 300 300 299 298 299 300 300 300 299 298 297 296 295 294 294 295 295 295 295 296 297 298 299 299 297 297 298 299 299 300 301 301 302 302 302 302 302 303 302 303 304 305 306 307 308 308 307 306 305 305 305 305 305 305 306 306 307 308 309 311 313 314 314 314 314 314 315 317 319 322 324 327 330 332 335 338 338 338 339 339
294 295 294 294 294 294 294 293 295 296 296 297 297 296 295 296 298 298 298 296 294 294 296 298 299 299 298 298 298 299 299 299 297 296 296 295 292 291 292 292 292 293 294 295 296 297 296 295 295 296 296 298 299 300 300 301 301 301 301 301 301 301 301 303 303 305 306 307 307 307 306 305 304 304 304 304 305 305 305 306 306 307 308 310 311 311 311 312 313 314 315 317 320 322 325 328 331 333 336 337 337 338 338
293 294 294 294 294 294 294 293 294 296 297 298 297 295 297 298 298 298 296 295 294 294 295 296 297 298 298 298 297 297 298 299 297 296 295 293 291 290 289 289 290 291 293 294 295 296 295 295 294 294 295 296 297 298 299 300 300 300 300 300 300 300 301 302 303 304 304 306 306 306 305 305 304 303 303 303 303 304 304 304 305 306 307 307 308 308 308 309 310 312 314 315 317 320 322 325 329 332 334 335 336 336 337
293 293 294 294 294 294 293 293 294 296 300 298 297 296 296 295 296 296 296 296 295 294 294 295 296 296 296 297 297 297 297 298 298 296 294 292 291 290 289 290 289 289 290 291 293 295 296 295 295 294 294 294 295 296 297 298 299 299 299 299 299 299 300 302 303 303 304 305 305 306 305 305 304 303 303 302 302 302 303 303 304 304 305 306 306 307 307 308 308 309 312 313 316 318 320 323 326 329 332 334 334 335 336
292 292 293 294 294 294 294 293 293 294 297 297 297 297 296 296 296 296 296 297 296 295 295 294 294 295 295 296 296 297 299 299 298 297 297 293 290 290 290 291 289 287 286 286 288 291 293 294 295 295 294 293 293 294 295 297 298 298 298 298 298 298 299 301 302 302 303 304 304 305 304 304 304 303 302 301 301 302 302 302 303 303 304 304 305 306 306 307 307 308 309 310 313 316 319 321 324 327 330 331 332 333 334
292 292 293 294 294 295 295 294 293 293 293 295 296 296 296 295 295 295 295 295 295 295 296 296 294 292 294 293 294 295 298 299 298 296 296 294 292 291 291 288 287 286 285 286 285 285 288 289 290 292 294 293 293 293 294 295 296 296 298 297 297 298 299 300 301 301 302 302 303 304 303 303 303 303 302 301 301 301 301 302 302 302 303 304 304 304 305 306 307 307 308 309 310 312 316 319 322 324 327 329 330 331 332
291 291 292 293 294 295 295 294 293 294 293 294 295 296 296 295 295 295 294 293 293 293 294 295 293 292 293 293 293 293 295 297 297 296 297 295 294 293 291 289 288 288 285 286 286 285 286 287 288 289 292 292 292 293 294 294 294 296 299 298 297 297 298 299 299 300 300 302 302 303 303 303 302 302 301 301 301 301 301 301 301 302 302 302 303 304 304 306 306 306 307 308 309 310 312 318 320 322 325 326 327 328 329
291 291 291 292 293 293 293 293 293 293 294 295 296 296 296 296 294 293 293 292 292 292 293 294 293 291 292 293 293 293 293 295 297 297 297 297 296 295 294 292 289 287 286 285 285 286 287 286 286 288 291 290 291 292 293 293 293 293 297 296 296 295 296 297 298 299 299 300 301 302 302 302 302 302 301 300 300 300 300 300 301 301 302 302 303 303 304 304 304 305 306 306 308 310 312 316 318 321 322 324 325 325 326
292 291 291 291 292 292 293 293 293 293 294 296 296 296 296 294 294 293 293 293 293 292 292 294 294 292 291 292 292 292 292 294 296 298 297 296 296 295 293 292 292 291 290 287 287 287 287 286 286 287 289 290 291 291 291 292 292 292 294 295 294 294 295 296 297 298 298 299 300 301 301 302 302 301 301 300 299 299 300 300 300 301 301 301 302 302 303 303 304 305 305 306 307 309 312 314 317 319 321 322 323 323 324
292 292 291 291 291 292 293 294 294 294 295 297 296 295 295 295 295 295 295 294 293 293 290 292 294 294 292 291 292 292 292 292 293 294 296 296 296 295 294 293 293 293 294 292 291 289 287 286 285 286 286 289 290 290 290 290 291 292 292 294 294 294 293 294 295 296 297 297 298 299 300 301 301 301 300 299 299 299 299 299 300 300 300 301 301 302 302 303 304 305 305 306 308 309 311 314 316 318 320 321 322 322 322
291 291 291 291 291 292 292 293 293 294 295 297 296 295 296 295 295 294 294 293 294 294 292 293 294 295 296 293 292 293 293 291 291 291 292 295 296 295 295 293 294 295 295 292 291 290 290 288 286 285 284 285 287 289 290 289 290 291 292 293 293 293 292 293 294 295 296 296 297 298 298 299 300 300 300 299 298 298 299 299 299 300 300 300 301 301 302 303 304 305 306 307 309 310 311 312 314 317 319 320 321 321 321
291 292 291 291 291 292 292 292 293 294 295 297 297 296 296 294 294 294 293 292 294 296 293 293 293 294 296 293 292 293 293 292 290 289 289 292 294 295 295 294 293 293 293 291 290 289 290 290 289 287 285 285 285 286 289 289 290 290 290 292 292 292 291 293 293 294 294 294 295 296 297 298 298 299 299 299 298 298 298 298 299 299 299 300 300 301 301 301 302 304 305 307 308 310 311 311 313 315 317 318 319 320 320
292 293 293 292 291 291 292 293 293 294 295 298 297 295 295 294 293 293 293 293 294 294 293 292 292 293 295 293 292 292 293 292 291 290 289 291 293 294 296 295 293 293 293 291 290 289 289 288 288 288 288 288 285 284 285 288 290 291 290 292 292 292 291 292 293 294 294 294 295 295 296 296 297 298 298 298 297 297 298 298 298 299 299 299 300 300 301 301 302 303 304 306 307 309 310 311 312 314 316 318 318 319 319
Wind_Speed
11 11 11 10 10 10 10 10 10 10 10 10 10 11 11 10 10 10 10 10 11 11 11 12 12 12 12 12 12 13 13 13 13 14 14 14 14 14 14 14 15 15 15 15 16 16 16 12 9 7 8 6 6 6 6 7 7 6 6 5 4 4 4 9 11 11 11 11 11 11 11 11 11 12 12 12 12 12 12 12 12 11 11 10 9 7 5 4 3 3 2 2 4 5 5 5 5 4 4 4 4 3 3
11 11 11 11 10 10 10 10 10 10 10 10 10 10 10 10 10 10 10 11 11 11 12 12 12 12 12 12 12 13 13 13 13 13 13 14 14 14 14 14 15 15 15 15 16 16 15 11 8 7 8 7 6 6 6 7 7 7 6 5 4 4 6 11 12 12 11 11 11 11 11 11 11 11 12 12 12 12 12 12 11 11 10 10 10 9 8 6 5 4 3 3 4 5 6 5 5 5 5 4 4 4 4
11 11 11 11 10 10 10 10 10 10 10 10 10 10 10 10 10 10 10 11 11 12 12 12 12 12 12 12 12 12 13 13 13 13 13 13 13 14 14 14 15 15 15 15 16 15 15 12 9 8 8 7 7 7 7 7 7 7 7 6 5 5 9 12 13 12 12 11 11 11 11 11 11 11 12 11 11 11 11 11 10 10 10 9 10 10 11 10 8 5 4 3 3 5 6 6 6 5 5 5 5 5 4
11 11 11 11 10 10 10 10 10 10 10 10 10 10 10 10 10 10 11 11 12 12 12 12 12 12 12 12 12 12 12 12 12 13 13 13 13 13 14 14 14 15 15 15 15 14 11 10 9 8 7 7 7 7 8 8 8 8 7 6 6 8 12 13 13 12 12 12 12 12 11 12 12 12 12 11 11 10 10 10 9 9 9 9 9 10 11 11 10 8 5 4 3 4 6 6 6 6 5 5 5 5 5
11 11 11 11 10 10 10 10 10 10 10 10 10 10 10 10 10 11 11 12 12 12 12 12 12 11 11 11 11 11 12 12 12 12 13 13 13 13 14 14 14 15 15 15 15 14 10 9 8 7 6 7 7 7 7 8 8 8 7 6 7 10 14 14 13 13 12 12 12 12 12 12 12 12 12 11 11 11 10 10 9 8 8 8 9 9 10 11 12 11 8 5 3 3 5 6 6 6 6 5 6 6 6
11 11 11 10 10 10 10 10 11 11 10 10 10 10 9 10 11 11 11 12 12 12 12 12 11 11 11 11 11 11 11 12 12 12 13 13 13 13 14 14 14 14 14 15 15 14 11 8 6 5 6 6 7 7 7 7 7 7 6 6 8 11 14 14 13 12 12 12 12 12 11 11 11 12 12 12 11 11 11 10 9 8 8 8 8 9 9 10 11 12 12 8 5 3 3 5 6 6 6 6 6 6 6
11 11 11 10 10 10 10 10 10 10 10 10 10 10 10 10 11 11 11 12 12 12 12 12 11 11 11 11 11 11 12 12 12 13 13 13 13 13 14 14 14 14 14 14 15 14 11 8 6 6 6 6 6 7 6 7 7 7 6 6 9 12 14 13 13 12 12 12 12 11 11 11 11 11 11 12 11 11 11 11 11 10 9 9 9 9 9 9 10 11 12 11 9 5 3 3 5 6 6 6 6 6 6
10 10 10 10 10 10 10 10 10 10 10 10 10 9 10 10 11 12 12 12 12 12 12 12 11 11 11 11 11 12 12 13 13 13 13 13 13 13 14 14 14 14 14 14 14 14 12 8 7 6 6 6 6 7 7 7 7 7 6 5 8 12 13 13 13 12 12 12 11 11 11 11 11 11 11 11 11 11 11 11 11 11 11 10 9 9 8 9 9 10 11 12 10 8 4 2 4 6 6 7 7 7 6
10 10 10 10 10 10 10 10 10 10 10 10 9 9 10 11 12 12 12 12 12 12 12 12 12 12 11 11 12 12 13 13 13 13 13 13 13 13 13 13 13 13 13 14 14 14 13 8 6 6 5 6 6 7 7 6 6 7 6 6 8 11 13 13 12 12 12 11 11 11 11 11 11 11 11 11 11 11 11 11 11 11 11 11 10 9 8 8 8 9 10 11 11 9 7 3 2 4 6 7 7 7 6
10 10 10 10 10 10 10 10 10 10 10 10 10 10 11 12 12 12 12 12 13 12 12 12 12 12 11 12 12 13 13 13 13 13 13 13 13 13 13 13 13 13 13 13 14 14 13 8 6 5 5 6 6 7 7 6 6 6 5 7 10 12 13 13 12 12 11 11 11 11 12 12 11 11 11 11 11 11 11 11 11 11 11 11 10 10 9 8 8 8 8 10 11 11 9 6 2 2 5 7 7 7 6
10 10 10 10 10 10 10 10 10 11 11 10 10 10 12 12 13 12 12 13 13 12 12 12 12 12 12 12 12 13 13 13 13 13 13 13 13 13 13 13 13 13 13 13 13 13 12 8 6 5 5 6 7 7 6 5 6 6 5 8 11 13 13 12 12 11 11 11 12 12 12 12 11 11 11 11 11 11 11 10 10 10 10 10 10 10 10 9 8 8 8 8 10 11 11 9 5 2 3 6 7 7 7
9 10 10 10 10 11 10 11 11 11 11 10 10 11 12 13 13 13 12 12 12 12 12 12 12 12 12 12 12 13 13 13 13 13 13 13 13 13 13 13 13 13 13 12 12 11 10 7 5 5 5 6 6 6 5 5 5 5 4 9 12 13 12 12 12 11 12 12 12 12 12 12 11 11 11 11 11 11 10 10 10 10 10 10 10 10 10 9 9 8 8 8 8 10 11 10 8 5 2 4 6 7 7
9 10 10 10 10 11 11 11 11 11 11 11 11 12 13 13 13 13 13 12 12 12 12 12 12 12 12 12 12 12 13 13 13 12 12 12 13 13 13 13 12 12 12 11 10 9 7 5 5 5 5 5 5 5 5 5 5 5 5 10 12 12 12 12 11 11 12 12 12 12 12 12 11 11 11 11 11 10 10 10 10 9 9 9 9 9 9 9 9 9 8 8 8 8 9 10 10 9 6 3 4 5 6
9 10 10 10 11 11 11 11 11 11 11 11 11 12 13 13 13 13 12 12 12 12 12 12 12 12 12 12 12 12 12 12 12 12 12 12 12 12 12 12 12 11 10 9 7 5 4 4 4 4 4 4 4 5 5 5 4 5 8 11 12 12 12 11 11 12 12 12 12 12 12 12 11 11 11 11 11 10 10 10 10 9 9 9 9 9 9 9 9 9 9 8 8 8 8 9 10 10 9 6 4 3 4
9 9 10 11 11 11 11 11 12 11 11 11 12 12 13 13 13 13 12 12 12 12 12 12 13 12 12 12 12 12 12 12 12 11 11 11 12 12 11 11 11 10 9 6 4 3 3 3 3 3 3 3 3 4 5 4 4 5 11 12 12 12 12 12 12 12 12 12 12 12 12 12 11 11 11 11 10 10 10 10 10 9 9 9 8 8 9 9 9 9 9 9 8 8 7 8 10 10 10 8 7 5 5
8 10 11 11 11 11 12 12 12 12 12 12 12 13 13 13 13 12 12 12 12 12 12 13 13 12 12 12 12 12 11 11 11 11 11 11 11 11 11 10 10 8 6 3 2 2 2 2 2 2 2 3 3 3 4 4 4 6 12 12 12 12 12 12 12 11 11 11 12 12 12 11 11 11 11 11 11 10 10 10 10 9 9 8 8 8 8 8 9 9 9 9 9 8 7 8 8 10 11 9 8 7 7
8 10 11 12 12 12 12 12 12 12 12 12 12 13 13 13 13 13 12 12 12 12 13 13 13 13 13 12 12 10 7 7 8 8 9 10 10 10 10 10 8 6 3 2 2 2 2 2 2 2 2 2 2 3 3 4 5 8 12 12 13 13 12 12 12 12 11 11 11 11 11 11 11 11 11 11 11 10 10 10 10 10 9 8 8 8 8 8 8 9 9 9 9 9 8 8 8 9 10 9 8 7 8
9 11 12 12 12 12 12 13 13 13 13 13 13 13 13 13 13 13 12 12 12 12 13 13 13 13 13 12 10 7 4 4 4 4 6 8 8 9 9 8 6 4 2 2 2 2 2 2 2 2 2 2 2 3 3 4 5 8 12 12 13 13 13 13 12 12 12 11 11 11 11 11 11 11 11 11 11 11 10 10 10 10 10 9 9 8 8 8 8 8 9 9 9 9 9 8 8 8 9 9 8 7 7
9 11 11 12 13 13 13 13 13 13 13 13 13 12 13 13 13 13 13 13 13 13 13 13 12 12 12 11 8 5 3 3 2 2 3 4 6 6 6 5 4 3 2 3 3 3 2 2 2 2 2 2 2 2 3 4 6 9 11 12 13 13 13 13 13 12 12 12 12 12 12 11 11 11 11 11 11 11 10 10 10 10 10 10 10 10 9 9 9 8 9 9 9 9 9 9 8 8 8 9 9 8 7
7 8 10 11 12 12 12 12 12 13 13 13 12 11 11 12 13 13 13 12 12 12 12 12 11 10 10 7 5 3 3 2 2 2 2 3 3 4 4 3 3 3 3 3 4 3 3 3 3 2 2 2 2 2 3 4 6 9 11 12 12 13 13 13 13 13 12 12 12 12 12 12 11 11 11 11 11 11 11 10 10 10 11 11 11 11 10 10 9 9 9 9 9 10 10 9 9 8 8 8 9 8 8
4 5 6 7 9 10 9 9 9 10 10 11 10 8 7 8 9 10 11 10 10 11 11 10 8 6 6 4 3 3 3 2 2 2 3 3 3 2 2 2 3 3 3 4 4 3 3 3 3 3 3 3 2 2 3 5 7 9 11 12 12 13 13 13 13 12 12 12 12 12 12 12 11 11 11 11 10 10 11 11 11 10 11 11 11 11 11 10 10 10 9 10 10 10 10 10 9 8 8 8 8 9 8
3 3 3 4 5 5 5 5 5 6 7 9 7 5 4 4 4 5 6 5 5 6 7 6 4 3 3 3 3 3 3 2 2 2 3 3 3 3 3 3 3 3 4 4 4 3 3 3 3 3 4 3 3 3 3 6 8 9 11 12 12 13 13 13 13 13 12 12 12 12 12 11 11 11 11 11 11 11 11 11 11 11 11 11 11 11 11 11 10 10 10 10 10 10 11 10 10 9 8 8 8 8 8
3 3 3 3 3 3 3 3 3 4 4 6 5 3 3 2 2 2 2 2 2 2 2 3 3 3 3 3 3 3 2 2 2 2 2 3 3 3 3 3 3 4 4 4 4 4 4 3 3 4 4 4 4 3 3 6 8 10 11 12 13 13 14 14 13 13 13 13 12 12 11 11 11 11 11 11 11 11 11 11 11 11 11 10 10 10 10 10 10 10 10 10 10 10 11 11 10 10 9 8 8 8 8
3 3 3 3 3 3 3 3 3 3 3 3 3 3 3 2 2 1 1 1 1 1 1 2 3 3 3 3 3 2 2 1 2 2 2 2 3 3 3 4 4 4 4 4 4 4 4 3 4 4 4 4 4 4 5 7 10 12 14 14 14 14 14 14 14 14 13 13 13 12 12 11 11 11 11 11 11 11 11 11 11 11 11 11 10 10 10 10 10 10 10 10 10 10 11 11 11 11 10 9 9 8 8
2 3 3 2 2 2 2 2 3 3 2 2 2 2 3 2 2 1 1 1 1 2 2 2 2 2 2 2 2 2 2 2 2 2 2 2 3 4 4 4 4 4 4 4 4 4 4 4 4 4 5 5 5 5 6 11 14 16 16 16 16 16 15 15 14 14 14 13 13 13 12 12 12 11 11 11 11 11 11 11 11 11 11 11 10 10 10 10 10 10 10 10 10 10 10 11 11 11 11 10 10 9 9
2 3 2 2 2 2 2 2 2 2 2 2 1 2 2 2 2 1 1 1 1 2 2 2 2 2 2 2 2 2 2 2 2 3 3 3 3 4 4 5 4 4 4 4 4 4 4 4 5 5 5 5 5 6 8 14 18 19 18 18 17 17 17 16 15 15 14 13 13 13 12 12 12 12 12 11 11 11 11 11 11 10 10 10 10 10 10 10 10 10 10 10 10 10 10 10 10 10 11 11 11 10 10
2 2 2 2 2 2 2 2 2 2 2 2 1 1 2 2 2 1 1 1 1 2 2 3 3 3 2 2 2 3 3 3 3 3 4 3 3 3 4 5 5 4 4 4 4 4 4 5 5 6 5 5 6 6 7 14 18 19 19 18 18 18 18 17 17 16 15 14 13 13 12 12 12 12 12 12 12 12 11 11 10 10 10 10 10 10 10 10 10 10 10 10 10 11 10 10 10 10 10 10 11 11 11
2 2 2 2 2 2 2 2 2 2 2 2 1 1 1 2 2 2 2 1 1 2 2 2 2 2 2 2 2 3 3 3 3 3 4 3 3 3 4 4 5 5 4 4 4 4 5 5 6 6 6 6 6 6 7 12 16 19 19 19 18 18 18 18 18 18 17 16 14 13 12 12 12 12 13 13 13 12 12 11 10 10 10 9 9 9 10 10 10 10 10 10 10 10 11 10 10 10 10 10 11 11 11
2 2 2 2 2 2 2 2 2 2 2 2 2 2 2 2 2 2 2 2 2 2 2 2 2 2 2 2 2 2 3 3 3 4 4 4 3 3 3 4 5 5 4 4 5 5 5 6 6 6 6 7 7 7 7 9 14 18 19 19 19 19 18 19 19 19 18 17 16 15 14 13 12 12 12 13 13 13 12 11 11 10 10 9 9 9 9 10 10 10 10 10 10 10 10 10 10 10 10 10 10 11 11
2 2 2 2 2 2 2 2 2 2 2 2 2 3 2 2 2 2 3 3 3 3 2 2 2 2 2 2 2 3 3 3 3 4 5 4 4 4 4 4 5 5 5 5 5 5 5 6 6 6 5 7 7 7 7 7 11 16 19 19 19 19 19 19 19 19 19 19 18 17 16 15 13 12 11 12 12 13 12 12 11 10 10 10 10 10 10 10 10 9 9 9 9 9 9 10 10 10 10 10 10 10 11
2 2 2 2 2 2 2 2 2 2 2 2 2 3 2 2 2 2 2 3 3 3 3 3 3 3 3 2 2 2 2 3 3 3 4 5 5 5 4 4 5 5 5 4 4 4 5 5 5 5 5 6 7 7 7 7 9 14 19 19 20 19 19 19 19 19 19 19 18 18 18 17 16 14 12 11 12 12 12 12 12 11 11 11 11 11 11 10 10 10 9 9 9 8 8 8 9 9 9 9 10 10 10
2 2 2 2 3 3 2 3 3 3 2 2 2 2 2 2 2 2 2 2 2 2 2 2 2 2 2 3 3 2 2 2 2 3 4 4 5 5 5 5 5 5 5 5 5 5 5 5 6 6 5 6 6 6 6 6 7 10 15 18 19 19 20 20 20 20 20 19 19 18 18 18 18 18 15 13 12 12 12 13 13 12 12 12 12 12 11 11 10 10 10 10 9 9 8 8 8 8 8 8 9 9 9
2 2 2 3 3 2 2 3 3 3 3 2 2 3 3 3 2 2 2 2 1 1 1 1 1 2 2 2 2 2 2 2 2 3 4 4 5 5 5 6 6 6 5 6 6 6 6 6 6 6 6 6 6 6 5 5 6 7 10 14 17 19 20 20 20 20 20 19 19 19 19 19 20 20 18 16 14 13 13 14 14 13 13 13 13 12 12 11 11 10 10 10 10 10 9 9 8 8 8 8 8 8 9
2 2 2 3 2 2 3 3 3 3 3 2 2 3 3 3 3 2 2 2 1 1 1 1 1 1 1 2 2 3 3 2 2 3 4 4 4 5 5 6 6 6 6 7 7 7 6 6 6 7 7 6 6 5 5 5 6 6 7 10 14 17 19 20 20 20 21 20 20 19 19 20 20 21 21 18 16 14 14 15 15 14 14 13 13 12 12 11 11 11 11 11 11 11 11 10 10 10 9 9 8 8 8
2 2 3 3 2 3 3 3 3 3 3 3 2 3 3 3 3 3 2 2 2 2 2 2 1 1 2 2 3 4 4 3 3 3 4 4 5 5 6 6 6 5 6 7 8 7 6 6 6 7 7 7 6 6 5 5 6 6 6 9 12 14 17 18 19 20 21 21 21 20 20 21 21 21 21 20 18 17 16 16 15 15 14 14 13 13 12 12 12 12 12 11 11 11 11 11 11 10 10 9 9 9 9
2 2 3 3 3 3 3 3 2 2 3 3 3 3 3 3 3 3 3 3 3 3 3 3 3 3 3 4 5 5 5 4 4 4 5 5 5 5 6 6 6 6 6 7 7 7 6 6 6 7 7 7 7 6 6 5 5 6 6 7 9 11 13 15 16 17 20 21 21 21 21 21 21 21 21 21 21 19 18 17 16 15 15 15 14 14 13 13 13 13 13 13 12 12 11 11 11 10 10 10 10 9 9
2 3 3 3 3 3 3 3 2 2 2 2 3 3 3 3 3 3 3 4 4 3 3 3 4 5 5 5 5 5 5 4 5 5 5 4 5 5 6 6 6 6 6 6 6 6 6 6 6 7 7 7 7 6 6 5 5 5 5 5 6 8 9 9 11 13 16 20 21 22 22 22 21 21 22 22 22 21 20 19 18 17 17 17 16 16 16 15 15 15 15 15 14 14 13 12 11 11 10 10 10 10 9
2 3 3 3 3 3 3 2 2 2 2 2 3 3 3 3 3 3 3 4 4 3 3 4 4 5 5 5 5 5 4 4 4 4 4 4 5 6 6 5 5 6 6 5 5 6 7 7 7 7 7 7 7 7 6 6 6 6 5 5 6 6 7 8 9 9 11 16 19 21 22 22 22 22 22 23 23 23 22 22 21 21 21 20 20 20 19 18 18 18 18 18 18 17 16 14 13 12 11 11 11 11 11
2 3 3 3 3 3 2 2 2 2 2 2 3 2 2 2 3 3 4 4 4 3 3 3 4 4 5 4 4 4 5 4 4 4 4 5 5 6 5 5 5 6 5 5 6 6 6 6 7 7 8 8 8 7 7 7 7 7 6 6 6 6 7 8 9 8 8 11 14 18 22 22 22 22 22 23 23 24 24 24 24 24 24 23 23 23 22 21 21 21 21 21 21 20 19 17 16 14 13 12 12 12 12
2 3 4 4 3 2 1 2 2 2 2 2 2 2 2 3 3 4 4 4 4 4 3 3 4 5 5 5 5 5 5 4 4 4 4 5 5 5 5 5 5 6 5 6 6 6 6 6 7 7 8 8 7 7 7 8 8 8 7 7 6 6 6 8 9 8 7 8 10 13 19 22 22 22 22 23 23 24 24 24 25 25 25 25 25 25 24 24 24 24 24 23 23 22 22 21 19 18 16 15 14 13 14
2 3 4 3 3 2 2 2 2 2 2 2 2 2 2 3 3 3 3 4 4 4 4 3 4 4 4 4 5 5 4 4 4 5 5 5 5 5 5 5 5 6 5 6 6 6 6 6 6 7 7 7 7 7 8 9 9 9 8 8 7 7 7 8 9 9 7 8 8 10 14 20 22 22 23 23 23 24 24 24 25 25 25 25 26 25 25 25 25 25 24 24 24 23 23 22 21 20 19 17 16 15 14
3 3 3 3 2 2 2 2 2 2 2 3 3 3 3 3 3 3 3 4 4 5 5 4 4 4 4 4 4 4 4 4 4 4 5 5 5 5 5 5 6 6 6 6 6 6 6 6 6 6 6 6 7 8 9 9 10 10 9 9 9 9 8 8 8 8 7 8 8 8 10 17 20 22 23 23 23 24 24 24 24 24 24 25 25 26 26 26 25 25 24 24 23 23 23 22 22 21 20 18 17 16 15
3 3 3 3 2 2 2 2 2 2 2 3 3 3 4 3 3 2 2 3 4 5 5 4 4 4 4 4 4 4 4 4 4 4 4 4 5 5 5 5 6 6 5 6 6 6 6 6 6 6 6 6 7 8 9 10 10 10 10 9 9 9 9 9 8 8 8 8 8 8 8 12 16 20 21 22 23 23 24 24 24 24 24 24 25 26 26 26 26 25 24 24 23 23 23 23 22 21 20 19 17 16 16
3 3 3 3 2 2 2 2 2 2 2 3 3 4 4 3 3 2 3 3 4 5 5 4 4 4 4 4 4 4 4 4 3 3 3 4 4 5 5 6 6 5 5 5 5 5 5 5 6 7 7 7 7 8 9 9 10 9 8 8 8 8 9 9 9 9 9 9 9 8 9 9 11 15 18 19 20 21 22 23 24 24 23 24 25 26 26 26 26 26 25 25 24 24 24 24 23 23 22 21 19 18 17
3 3 3 3 3 3 3 2 2 2 3 3 4 4 4 3 3 3 3 3 4 4 5 4 4 4 4 4 4 3 3 2 2 2 3 3 4 5 5 5 5 5 5 5 5 5 5 6 6 6 6 6 7 7 7 9 8 8 7 7 7 8 9 9 9 9 10 9 9 9 10 10 9 10 11 13 14 16 18 21 23 23 24 24 25 26 26 27 26 26 26 26 25 25 25 25 25 25 24 24 22 21 19
3 3 3 3 3 3 2 2 2 2 3 3 4 4 4 4 3 4 4 4 4 4 4 4 4 4 4 4 4 3 3 2 1 2 2 3 4 5 5 5 5 5 5 5 5 5 5 6 6 6 6 6 6 6 6 8 7 7 7 7 7 8 9 9 10 10 10 9 8 9 10 11 10 9 8 9 9 10 13 18 21 23 23 24 25 26 26 27 27 27 27 26 26 26 26 26 26 26 26 25 24 23 22
3 3 3 3 3 3 2 2 2 2 3 4 4 4 4 3 3 3 4 4 5 5 5 5 5 5 5 5 5 4 3 2 2 2 2 3 4 5 6 4 4 4 4 4 4 5 5 6 6 6 6 6 6 6 6 6 6 6 7 7 7 8 9 9 9 9 9 8 8 9 10 11 11 10 8 8 8 8 9 12 17 20 22 23 24 25 26 26 26 27 27 27 27 27 26 26 26 26 26 25 25 24 24
3 3 3 3 3 3 3 2 2 2 3 4 4 4 4 3 3 2 2 3 4 4 4 5 5 5 5 5 5 4 4 3 3 2 2 3 3 4 4 3 3 4 3 4 4 5 6 5 6 6 6 6 6 6 6 6 6 6 6 6 7 8 9 9 9 8 7 7 8 10 11 10 10 10 8 8 8 8 8 9 12 16 19 21 22 24 25 26 26 27 27 27 27 27 27 27 26 26 26 26 25 25 25
3 3 2 3 3 3 3 2 2 3 3 4 4 3 2 2 3 3 2 2 2 3 3 5 5 6 6 5 5 5 4 4 3 1 2 3 4 4 3 3 4 4 3 3 3 4 5 5 5 6 6 6 6 6 5 6 6 6 6 6 7 7 8 8 8 7 6 7 9 10 11 11 10 9 9 8 8 8 8 8 9 10 13 17 20 21 23 24 25 26 27 28 28 28 27 27 27 26 26 26 26 26 26
3 3 3 3 3 3 3 3 3 3 4 3 3 2 2 3 4 4 5 4 2 2 2 3 4 5 6 5 4 4 4 4 3 2 3 4 3 3 2 3 3 4 4 3 3 3 4 5 5 5 5 5 5 5 5 5 6 6 6 6 6 6 7 7 7 6 6 8 9 10 11 11 10 9 9 8 8 8 8 8 8 8 9 11 14 16 17 20 23 26 27 28 29 29 28 28 28 27 26 26 26 27 27
3 4 4 3 3 3 3 2 3 3 4 4 4 3 4 5 6 6 5 5 4 3 2 3 3 3 4 4 3 3 4 4 3 2 3 2 1 2 2 1 2 3 4 4 4 3 3 4 4 4 5 5 4 4 5 5 6 6 6 6 6 6 6 6 6 5 6 8 9 10 11 11 10 9 8 9 9 9 8 8 8 8 8 8 9 10 11 13 18 23 26 28 29 30 29 29 28 28 27 26 26 27 27
3 3 4 4 3 3 2 2 2 3 4 4 4 4 4 5 5 4 4 5 4 4 2 2 2 2 2 3 3 3 5 5 4 3 3 2 1 1 2 2 3 3 3 4 5 4 4 5 4 4 5 5 5 4 4 5 6 6 6 6 6 6 6 5 5 5 6 7 8 9 9 9 9 9 9 10 11 10 9 9 8 8 8 7 8 9 10 12 15 19 24 26 28 30 30 30 29 28 28 27 27 27 27
3 3 4 4 3 3 2 3 3 2 3 4 4 4 4 4 4 4 3 3 3 3 3 2 2 2 2 2 3 4 6 5 5 3 2 2 2 1 2 3 2 1 1 2 3 4 5 5 5 5 4 5 4 4 4 5 6 6 6 6 6 5 5 5 5 5 6 7 8 8 8 8 8 9 11 12 12 12 11 10 9 8 8 7 8 9 10 13 16 19 20 23 26 29 30 29 29 29 28 28 28 28 28
4 4 4 4 3 3 3 3 3 2 2 3 4 4 4 4 4 3 3 3 3 3 3 3 3 3 3 3 3 4 5 5 5 4 3 2 3 3 2 2 1 1 1 2 2 2 4 4 4 4 4 4 4 4 4 5 5 5 6 6 5 5 5 5 5 5 6 7 6 6 7 7 8 9 11 11 11 11 11 11 10 9 8 8 8 8 9 12 15 18 18 20 23 25 27 28 29 29 28 28 28 28 28
4 4 4 4 4 4 4 4 3 3 2 3 4 4 4 4 4 3 3 2 2 2 3 3 3 3 4 3 3 3 3 5 5 4 4 2 2 3 3 2 2 2 2 2 2 1 2 3 3 3 5 4 4 4 5 5 5 5 6 6 6 5 5 5 5 6 6 5 5 5 6 6 8 9 11 10 10 11 11 11 11 10 9 8 8 8 10 13 14 14 14 16 20 23 24 28 29 28 28 28 28 28 29
4 4 3 4 4 4 4 4 4 3 2 3 4 4 4 3 3 2 2 2 2 3 3 3 3 2 3 4 3 3 3 4 5 5 5 4 3 2 3 3 2 2 1 1 0 2 3 1 1 3 4 3 3 4 4 4 4 5 6 6 6 5 5 5 5 5 5 5 5 5 5 6 7 9 10 9 10 11 12 11 11 10 9 8 8 8 9 11 11 11 11 12 15 19 24 27 28 28 28 28 28 28 29
4 4 4 4 5 5 5 5 4 4 3 3 3 4 3 3 2 2 3 3 3 2 2 2 3 3 2 2 3 3 3 3 4 5 5 5 5 4 3 3 3 3 3 2 2 2 2 1 1 1 2 3 2 1 2 3 3 4 5 6 6 5 5 5 5 5 5 5 5 5 5 6 7 7 8 8 9 10 11 11 10 10 9 9 8 8 8 10 10 10 10 11 12 15 24 26 28 28 28 28 28 28 28
4 4 4 4 5 5 5 5 5 4 3 3 3 3 3 3 3 3 3 3 2 2 1 2 2 3 2 2 2 3 4 3 3 3 4 4 5 6 5 4 2 2 3 2 3 3 2 2 2 1 1 3 3 2 1 3 4 4 4 5 5 5 4 5 6 5 5 5 5 5 5 6 6 6 7 8 8 9 10 11 10 10 9 9 8 8 8 10 11 11 11 12 14 17 24 26 27 28 28 28 28 28 28
4 4 4 4 5 5 6 5 5 4 3 3 3 4 4 4 3 3 2 2 1 1 2 2 2 2 2 2 3 4 4 3 2 1 3 3 4 5 5 5 5 5 5 3 2 2 3 2 2 1 2 1 2 3 3 2 3 3 4 5 5 5 4 5 6 6 6 6 5 5 5 5 5 6 6 7 7 8 9 10 10 9 9 8 8 8 9 10 12 13 14 17 19 22 24 26 27 27 27 27 27 27 27
4 4 4 4 5 5 6 5 5 4 3 4 4 4 4 4 3 2 2 2 2 2 2 2 2 2 2 2 3 3 3 2 0 1 1 2 3 3 4 4 5 5 6 5 3 3 3 3 2 2 3 3 1 1 4 3 2 2 2 4 5 5 4 4 5 5 5 5 5 5 5 5 5 6 6 6 7 7 8 9 9 9 9 8 8 8 9 10 11 12 14 16 20 24 25 26 27 27 27 27 27 27 27
5 5 5 5 5 5 5 5 5 4 4 4 4 4 4 3 3 2 3 2 2 3 3 3 2 2 2 2 2 2 3 2 1 1 1 2 1 1 3 3 4 4 4 4 4 4 4 3 2 2 3 3 2 1 1 3 4 4 3 4 4 4 3 3 4 4 4 4 4 4 4 5 5 5 6 6 6 7 7 8 9 9 8 8 8 8 9 9 10 10 11 14 19 24 25 26 26 27 27 27 27 27 27
Wind_Direction
46 45 42 39 36 34 33 34 34 35 36 36 36 35 35 35 34 33 32 32 32 32 32 31 30 28 28 28 29 31 32 32 32 31 30 29 28 27 26 26 26 26 27 27 28 27 22 19 13 5 2 1 359 356 356 354 352 351 353 358 357 357 7 31 32 30 27 25 24 22 20 17 16 15 14 14 15 17 19 18 16 15 18 24 26 24 15 360 349 340 321 219 196 189 190 193 195 198 202 213 222 228 229
45 43 41 38 36 34 34 35 36 37 38 39 39 38 37 37 36 35 34 34 35 35 35 34 32 31 31 32 33 35 36 35 34 32 32 30 29 28 27 28 28 28 28 28 28 27 22 19 13 6 4 4 3 1 1 357 356 358 3 3 359 5 31 34 31 28 24 22 21 20 20 19 18 17 16 14 14 14 17 15 13 12 15 22 25 25 23 18 9 353 325 270 220 199 195 196 198 200 202 209 217 222 224
44 43 41 38 36 35 35 36 38 39 41 42 42 41 40 39 39 38 37 37 37 38 37 36 35 35 35 36 37 38 39 38 36 34 34 32 31 30 29 29 29 29 29 29 29 27 22 18 14 8 5 4 5 4 3 1 2 6 10 5 3 16 36 34 30 26 22 20 19 18 17 18 19 20 18 16 14 13 13 13 11 9 12 20 25 25 22 20 14 2 333 296 248 215 202 200 202 203 202 208 213 218 219
44 43 41 39 37 36 37 38 39 41 43 44 44 44 43 42 42 41 41 40 40 40 40 39 38 38 39 40 41 42 42 40 38 36 35 35 33 32 31 31 30 30 29 30 31 30 24 14 11 9 6 5 6 7 6 6 8 12 13 5 10 25 36 32 29 24 21 18 16 15 14 15 17 19 19 17 15 13 11 10 9 8 11 20 25 27 23 20 16 10 354 325 275 232 211 206 206 207 207 208 212 217 219
44 43 42 40 39 38 39 40 41 42 43 44 45 46 45 45 45 45 44 44 43 43 42 41 41 42 44 45 45 45 44 41 39 38 38 37 35 34 33 33 32 31 30 31 32 33 29 15 9 8 7 7 8 9 8 9 12 14 13 4 14 27 32 30 27 23 20 17 15 14 12 12 14 16 16 15 15 13 10 8 7 9 13 19 25 29 26 21 17 12 6 354 321 259 223 213 210 210 212 211 214 216 219
44 43 42 41 40 40 42 42 43 43 43 44 45 46 47 48 48 48 47 47 47 46 44 43 43 45 47 48 48 47 45 42 40 39 39 39 38 36 35 34 33 33 32 32 33 33 31 17 10 10 9 10 11 11 10 11 12 12 9 2 17 28 31 29 26 23 20 18 15 13 12 10 11 12 12 13 13 12 11 7 6 8 12 17 24 29 29 24 18 14 10 5 354 318 244 222 214 212 216 216 216 217 218
44 44 43 42 41 42 44 46 46 46 45 44 45 46 48 50 51 51 50 50 50 48 46 43 44 45 46 48 49 49 47 43 41 40 41 41 39 38 37 37 36 35 35 34 34 33 30 20 14 13 11 11 11 11 11 10 9 7 3 1 20 29 30 28 26 24 22 19 16 14 12 10 9 10 10 10 10 10 10 6 3 3 6 13 20 24 27 25 21 15 10 6 3 354 305 240 219 213 215 218 219 218 218
44 45 45 43 42 43 45 48 49 50 49 48 47 48 50 52 53 52 52 52 51 49 46 44 44 44 45 46 48 48 47 44 42 42 42 42 41 40 39 39 39 39 38 37 35 33 31 25 20 16 12 13 12 11 11 9 6 2 356 359 19 27 28 28 26 25 24 22 19 17 14 12 10 9 9 8 9 9 10 7 3 1 1 7 12 18 24 24 22 17 11 4 1 358 346 287 226 214 215 220 220 219 218
44 46 46 45 44 44 45 48 51 53 52 50 49 50 52 54 54 53 53 53 52 50 47 44 44 44 44 45 47 47 48 45 44 43 44 44 43 43 43 43 42 42 40 38 36 34 31 29 23 17 13 12 11 10 11 9 4 357 348 359 18 27 27 27 26 26 26 24 22 20 18 15 12 10 8 8 8 8 9 6 3 0 359 1 5 11 18 21 22 19 14 4 0 359 358 346 251 216 215 222 222 220 218
44 46 48 47 45 45 45 48 51 54 55 53 51 51 53 55 54 54 53 53 52 50 48 46 44 44 44 45 46 47 47 46 46 46 47 47 47 46 47 46 45 43 41 37 35 32 30 29 22 15 13 13 12 11 10 6 360 352 340 5 21 27 27 26 25 25 27 27 26 24 22 18 15 11 8 7 7 7 7 5 3 360 358 358 359 3 10 15 18 19 17 9 3 0 1 359 338 229 218 227 226 223 219
44 47 49 48 48 47 47 49 52 54 55 53 53 53 55 55 54 54 53 53 52 50 48 47 46 45 44 46 47 48 48 48 48 49 50 51 51 50 50 48 46 43 39 35 31 28 26 25 20 15 15 13 11 9 6 1 354 347 336 14 23 26 26 24 23 23 27 28 28 27 25 22 17 13 10 8 7 6 5 4 2 360 357 356 356 358 3 8 12 14 15 13 8 3 1 0 356 325 225 231 229 226 221
43 48 50 49 49 49 50 51 53 54 55 54 54 54 55 55 54 53 53 53 52 51 49 49 48 47 46 47 48 49 50 51 51 53 54 55 54 53 51 48 45 41 37 32 27 24 20 17 14 12 12 12 10 7 2 356 347 341 340 21 26 26 25 23 22 22 26 28 29 29 28 24 20 16 12 10 8 5 4 3 2 360 358 356 355 356 358 2 6 9 11 13 11 7 2 1 1 358 312 250 237 230 225
42 47 52 51 52 52 52 54 55 56 56 56 55 55 55 55 54 53 53 53 52 52 51 51 50 50 49 49 50 51 52 53 54 56 56 56 55 53 50 46 43 38 33 28 23 18 11 9 7 6 9 10 8 3 358 352 339 338 1 24 27 27 26 24 22 22 25 26 28 28 28 26 23 20 16 12 9 6 4 2 1 0 358 355 355 355 355 357 0 4 8 9 11 11 5 3 4 5 3 318 265 243 232
39 46 54 53 54 54 55 56 57 57 58 58 58 57 56 54 54 53 54 54 53 52 52 52 52 52 52 52 51 51 52 53 55 55 54 52 50 48 46 43 39 34 29 25 19 11 4 3 1 1 3 3 359 355 352 347 331 341 19 26 28 28 27 25 24 24 25 25 26 27 27 26 24 22 19 15 11 7 4 2 1 1 359 356 354 354 354 354 356 359 3 5 7 10 9 7 6 7 11 359 337 299 268
39 49 55 55 55 56 57 58 58 58 59 59 60 59 57 55 53 53 55 55 54 54 54 54 55 55 55 54 52 50 49 50 50 49 47 45 43 41 40 38 34 29 24 18 10 2 1 359 356 354 354 352 346 342 342 336 322 345 26 28 29 28 28 27 26 26 26 25 25 25 25 25 24 23 21 18 13 9 5 3 2 1 0 358 355 354 353 353 353 355 358 1 3 4 9 9 8 9 12 9 0 346 328
35 50 55 55 56 57 59 59 60 60 59 61 61 61 58 55 54 54 56 56 56 55 55 56 57 58 58 56 53 49 43 42 40 37 36 35 34 33 32 29 26 22 16 6 356 357 356 353 349 346 345 340 333 327 327 323 328 359 28 28 28 28 27 27 27 27 27 27 26 25 24 24 24 22 21 19 16 12 8 5 2 2 1 1 359 356 354 353 352 353 355 358 358 358 2 8 10 11 10 12 6 354 342
35 50 55 56 56 57 59 60 61 60 60 60 61 61 59 56 55 55 57 57 57 57 57 58 59 59 58 56 53 48 37 30 26 23 22 23 23 22 21 18 16 13 358 348 345 348 350 347 343 338 338 329 322 316 317 313 337 5 27 27 27 26 25 25 25 26 27 27 27 27 25 24 23 22 21 19 17 14 11 7 4 2 2 4 3 1 358 355 354 353 354 356 355 354 356 3 8 11 9 13 8 357 345
39 50 54 56 56 57 58 59 60 61 60 59 59 59 59 57 57 57 58 58 59 59 59 59 59 59 57 54 50 45 30 13 7 6 7 10 10 9 9 7 6 1 343 342 341 342 343 343 341 337 333 323 314 309 310 310 340 6 25 25 25 24 23 22 23 24 25 27 27 27 26 25 24 22 21 19 18 16 14 10 6 4 4 6 7 6 3 360 357 355 354 354 353 352 352 358 5 9 9 11 9 3 352
40 47 51 54 55 55 54 56 58 59 59 57 56 55 56 57 58 58 59 59 60 61 61 60 59 57 54 51 47 38 22 8 359 353 346 350 352 353 355 357 355 349 346 343 342 341 342 342 339 338 333 320 309 304 308 314 340 3 22 23 23 22 21 21 21 21 23 25 26 26 25 24 23 22 21 20 18 17 16 12 9 6 6 8 10 9 7 4 1 358 356 355 353 352 352 356 1 6 9 8 8 7 2
37 41 46 49 51 51 50 51 53 55 57 55 52 50 52 56 57 59 59 59 60 61 62 61 58 54 51 48 42 29 17 6 359 354 344 339 338 340 344 348 351 351 350 347 344 342 342 341 339 337 333 324 315 310 311 313 334 356 19 20 21 20 20 21 20 21 23 24 25 25 24 23 22 21 20 20 19 19 18 15 12 9 8 9 10 9 8 6 3 1 359 357 355 353 353 354 357 1 6 4 4 4 4
32 34 39 42 44 45 43 43 45 48 51 51 49 46 43 46 52 57 59 57 58 60 62 61 58 51 48 44 39 33 19 8 1 356 347 342 338 341 347 352 355 354 350 347 345 343 341 340 339 338 335 331 327 324 318 315 331 351 15 18 19 19 20 21 21 22 24 26 26 26 24 23 22 20 19 19 20 20 20 18 15 12 11 10 10 9 7 5 4 2 1 359 356 354 352 352 353 356 1 2 0 359 359
32 33 35 35 36 36 34 33 35 39 41 44 45 43 30 30 39 48 53 48 51 55 58 60 60 57 52 48 45 39 22 13 7 1 347 346 348 352 357 357 357 354 349 348 346 344 340 339 339 340 338 338 338 333 326 331 340 354 13 17 19 19 20 21 21 22 25 26 27 27 26 25 23 21 18 18 20 22 24 21 18 15 13 12 11 9 7 5 4 3 2 360 357 354 352 350 349 351 354 357 355 352 350
35 39 40 38 35 33 28 27 31 33 28 33 37 39 27 26 24 20 18 13 20 30 43 61 67 67 64 59 53 45 28 17 12 4 347 348 353 357 358 356 357 354 350 349 347 343 339 340 343 346 348 348 349 346 340 349 357 7 18 20 21 21 21 21 21 21 24 26 27 28 27 28 26 23 19 19 20 22 25 23 20 17 15 15 13 10 8 6 5 4 3 1 358 355 352 349 347 346 347 349 348 346 343
38 46 44 42 37 32 26 26 30 29 19 19 25 30 22 18 10 356 333 328 326 334 358 52 65 70 69 68 64 56 39 26 14 3 347 347 352 356 357 358 357 355 350 348 345 342 341 345 352 359 3 3 3 3 359 12 19 23 26 25 24 23 22 21 20 20 22 24 26 27 28 29 29 26 23 21 20 22 25 25 22 19 17 15 14 12 9 8 7 6 4 3 0 357 354 350 346 344 343 342 341 339 337
39 51 46 42 36 31 22 28 29 25 11 4 12 21 17 6 357 345 330 323 322 325 333 10 33 46 46 60 63 60 46 34 16 3 357 359 359 358 356 358 358 355 350 347 345 345 347 357 8 16 17 16 18 19 20 30 32 32 30 27 25 24 23 22 21 21 22 24 24 25 25 27 28 28 27 25 23 23 24 25 24 21 19 17 14 12 10 9 8 7 6 5 3 360 356 352 348 344 341 339 337 335 334
40 51 46 38 32 27 17 27 28 22 8 352 358 17 18 1 350 339 331 323 325 327 329 338 350 359 7 19 25 26 23 25 18 10 4 8 6 3 359 359 358 356 354 351 351 355 2 14 24 30 31 32 32 32 31 35 36 34 32 28 26 24 23 22 22 22 23 24 24 23 23 24 25 26 27 27 26 26 25 25 25 23 21 18 15 12 10 9 9 8 7 7 4 2 359 355 350 346 341 338 336 334 333
43 51 43 31 24 21 21 23 23 18 6 345 348 11 24 6 355 348 341 334 332 338 336 336 341 345 349 350 348 346 348 2 8 7 2 5 9 8 3 360 360 1 1 358 1 8 19 28 35 40 42 44 43 40 35 36 35 34 32 29 26 24 23 22 22 22 23 23 23 22 22 22 22 23 24 27 28 29 28 27 26 24 22 20 17 14 11 9 8 7 7 7 5 2 359 355 352 347 342 339 336 334 333
47 49 43 29 23 24 28 22 20 14 360 348 352 12 32 18 9 3 4 358 354 353 349 343 342 342 340 341 338 334 334 343 351 359 360 3 8 10 6 4 4 5 5 6 11 19 27 35 41 46 50 52 49 44 38 36 35 34 33 31 28 26 24 23 22 21 21 21 21 21 21 21 21 21 22 25 28 30 30 28 27 25 23 22 20 18 15 11 8 6 5 5 4 1 358 355 352 349 345 341 337 335 333
48 42 39 33 31 29 29 23 19 14 356 355 6 18 22 25 19 14 12 10 9 6 3 354 350 348 349 347 343 340 335 337 346 354 359 3 7 8 8 7 7 7 9 13 18 24 29 34 41 48 54 57 54 48 42 36 35 35 34 32 30 28 26 25 24 21 20 19 18 19 20 21 20 20 21 25 28 30 31 30 28 27 25 24 23 22 20 15 11 7 5 4 3 1 357 354 352 350 347 343 339 336 333
53 39 39 36 36 34 31 26 22 14 354 5 21 24 14 16 21 21 14 12 12 12 12 7 5 5 5 1 359 353 342 343 352 358 2 5 6 6 8 9 10 11 16 19 24 28 30 33 38 46 56 60 58 53 47 40 36 35 35 33 32 30 29 28 26 23 20 18 18 18 19 19 19 20 23 26 29 31 32 32 30 29 27 27 26 25 24 19 13 9 6 5 3 1 357 354 351 349 346 343 340 337 333
69 49 44 45 41 37 29 29 25 18 3 13 24 27 15 14 18 21 18 16 16 16 16 15 16 17 15 18 13 4 346 351 359 5 6 8 8 9 10 13 17 21 25 28 33 36 36 37 39 45 55 61 61 58 52 44 38 36 36 35 34 32 31 31 29 26 23 20 19 18 18 18 18 19 25 30 32 33 33 34 33 31 30 29 28 26 25 20 16 11 7 5 3 0 356 352 349 346 344 342 339 335 332
81 66 52 52 45 36 24 32 30 22 7 15 24 24 13 18 18 17 16 23 20 17 17 18 20 20 21 24 17 5 353 1 8 13 14 16 16 15 12 20 27 31 31 40 45 46 43 42 42 44 50 56 59 59 55 48 42 37 36 35 35 34 34 33 31 29 25 22 20 19 18 17 17 18 23 29 33 35 35 34 33 32 32 31 30 27 24 21 17 13 10 7 4 1 357 352 349 345 342 340 337 333 329
80 70 61 57 50 40 26 36 32 22 7 13 20 21 11 13 14 15 15 16 15 11 9 18 18 20 27 28 19 7 5 9 17 23 24 27 25 22 20 29 34 39 41 49 51 50 46 44 43 43 45 48 53 57 57 51 45 40 37 35 35 34 34 33 32 30 27 23 20 19 19 19 18 19 21 26 31 36 37 36 33 32 31 31 30 27 24 20 17 14 13 11 7 3 358 355 352 348 344 341 336 331 326
84 75 67 60 55 46 41 39 31 19 7 12 18 20 13 9 8 10 16 8 4 3 10 13 14 17 29 35 27 20 17 15 25 34 37 35 32 30 32 38 41 43 48 53 54 52 47 45 44 43 43 43 46 49 54 52 47 42 38 35 35 34 34 33 32 30 28 25 22 20 20 21 21 21 20 24 30 36 39 37 34 31 30 30 29 26 22 19 16 15 14 14 11 7 2 359 356 353 349 344 337 330 324
93 82 72 64 54 48 47 41 29 17 9 12 16 18 13 9 8 9 15 15 18 19 19 20 24 26 25 37 36 31 23 20 28 41 46 43 39 38 42 44 44 44 49 52 52 52 48 47 46 45 42 40 40 42 47 49 48 44 39 35 35 35 33 32 30 29 28 26 24 23 23 24 24 23 22 24 29 36 41 38 34 31 28 28 26 24 19 16 14 13 13 13 12 11 5 1 358 354 350 344 338 330 324
95 85 75 67 59 52 48 39 26 15 11 12 13 15 16 15 15 18 25 29 32 31 22 29 35 38 37 41 40 35 25 25 33 43 48 48 46 46 49 46 45 46 49 50 50 50 47 46 46 46 43 40 38 37 39 43 44 43 40 34 34 35 34 31 28 27 27 26 25 24 25 25 25 25 24 26 30 35 41 38 34 31 28 27 25 22 18 15 13 13 12 12 12 11 7 3 359 354 349 343 337 331 326
95 85 76 70 64 57 48 33 20 13 13 15 16 17 21 22 23 27 34 37 38 36 30 40 43 44 45 46 44 38 27 32 39 45 46 48 51 52 52 49 47 48 50 49 48 46 44 42 44 47 45 42 39 36 35 37 37 38 39 34 33 34 35 32 27 25 25 25 25 25 26 26 26 26 26 27 31 34 38 36 34 32 31 29 26 23 20 18 16 16 16 16 14 12 11 7 2 356 350 344 338 334 329
95 86 78 71 64 58 52 30 11 6 15 25 25 24 28 28 30 34 43 46 42 36 36 48 49 48 48 51 50 44 33 39 46 50 48 51 54 55 53 50 50 51 51 49 48 46 42 39 41 44 44 43 40 37 34 33 30 30 35 34 32 32 34 33 29 25 23 24 24 25 26 26 26 26 27 28 31 33 35 35 35 34 34 32 30 27 24 23 22 21 22 21 18 16 14 12 9 3 356 349 343 338 333
95 88 80 72 65 59 52 24 8 6 20 37 35 29 28 35 36 40 48 50 45 39 41 53 56 53 48 50 51 48 40 47 53 56 54 57 58 58 54 54 54 53 52 50 49 47 43 39 39 41 42 42 40 38 35 33 28 26 29 31 30 30 33 34 31 29 26 25 24 24 25 26 27 27 27 29 30 31 33 34 35 36 35 33 30 27 25 24 24 23 23 21 18 16 15 14 12 9 4 357 351 346 339
93 89 84 75 68 60 44 23 14 16 32 46 43 35 29 43 45 44 48 53 49 42 39 51 59 57 48 47 49 49 43 49 55 59 58 61 62 61 57 57 57 56 52 51 49 47 42 38 38 39 41 41 40 38 37 34 30 28 28 28 27 28 30 33 32 31 29 27 25 23 24 26 26 27 27 28 29 30 30 32 34 36 35 32 29 26 25 24 23 23 21 18 16 14 13 11 10 7 3 359 356 352 347
91 87 86 79 71 56 40 28 21 27 44 51 50 45 40 48 49 48 49 56 55 49 36 46 61 66 57 50 52 54 47 50 55 60 60 63 63 62 59 60 59 56 53 51 50 47 41 38 37 39 41 40 39 38 37 34 31 29 29 27 25 24 27 31 33 32 31 30 27 25 24 25 26 27 27 27 27 27 28 29 31 34 35 33 30 27 25 24 23 22 20 17 14 11 9 7 5 2 358 356 355 354 352
95 88 86 82 73 55 43 32 30 34 52 55 55 53 51 49 47 47 53 62 63 58 44 45 59 74 72 59 58 59 55 51 52 57 62 64 64 63 62 61 59 56 54 52 50 47 42 38 37 38 39 40 39 38 36 34 32 30 29 27 24 23 25 29 32 33 32 31 29 27 25 24 25 26 26 26 26 25 25 26 28 31 34 33 31 28 26 25 23 22 20 17 13 10 7 4 1 359 356 355 354 354 354
97 92 88 85 76 56 39 35 34 42 58 60 58 57 56 49 44 42 49 64 69 66 53 47 53 67 75 65 60 58 58 53 48 49 57 63 64 63 62 62 59 56 55 53 51 48 44 40 38 37 39 40 39 37 35 34 32 31 30 27 24 23 24 27 31 34 34 32 31 29 26 24 24 25 25 25 24 23 23 23 24 26 30 32 32 30 27 25 23 21 19 16 13 9 5 2 360 359 0 0 360 358 358
93 91 89 86 77 59 40 35 35 46 61 63 62 60 58 51 46 45 45 57 68 71 62 51 53 61 70 68 63 58 59 55 48 43 49 60 63 63 61 61 59 57 55 53 51 48 45 41 39 39 39 41 39 35 33 32 31 31 30 27 25 23 24 27 30 33 35 33 33 32 30 27 25 24 23 23 22 21 20 21 22 24 26 29 30 30 27 24 21 19 17 15 12 8 4 1 1 2 6 9 9 7 4
92 87 80 78 69 59 43 34 37 52 64 66 65 60 57 49 48 51 54 53 64 71 69 57 55 61 70 75 72 66 62 61 54 48 54 61 64 64 63 61 59 57 55 53 51 48 46 43 42 41 41 40 39 36 32 30 29 29 30 28 25 24 24 27 29 32 34 34 34 34 33 31 28 25 23 22 21 20 19 20 21 23 25 26 28 28 26 23 20 18 16 14 11 8 4 2 3 5 9 12 13 13 11
97 88 79 72 67 60 44 35 41 58 67 68 65 61 54 47 46 50 57 58 61 64 68 60 58 60 65 73 75 73 67 67 62 63 69 70 68 65 63 59 56 56 55 51 47 45 45 44 45 44 41 40 39 36 33 29 27 27 29 27 25 24 25 27 29 31 33 34 34 34 35 33 30 28 26 24 22 19 17 19 20 22 24 25 26 26 24 22 19 17 15 13 11 8 5 4 4 6 10 12 14 15 14
101 94 88 82 76 67 51 41 47 62 71 70 66 61 52 47 45 49 57 63 63 61 60 61 60 57 55 55 56 57 53 48 48 59 73 70 69 67 65 57 51 50 54 48 41 39 41 43 45 44 41 40 38 35 33 29 28 29 30 25 24 25 25 26 28 30 32 34 35 35 36 34 32 30 28 27 24 21 17 18 20 21 23 24 24 23 22 20 18 16 15 13 11 8 6 4 5 6 10 11 13 14 15
100 96 95 92 86 77 61 51 56 67 73 72 69 64 57 52 51 53 61 73 73 70 63 63 63 60 55 43 35 28 28 27 31 51 80 63 55 53 59 52 40 34 39 40 35 33 36 43 45 43 40 37 36 34 32 30 31 32 30 25 24 24 24 26 27 28 29 33 35 37 37 36 33 31 30 28 25 22 19 18 19 20 21 21 22 21 20 18 17 15 14 13 11 9 7 5 5 7 10 12 13 14 16
104 97 94 91 88 83 73 61 65 72 74 75 75 73 69 64 61 61 64 74 86 87 74 65 66 67 65 50 32 16 10 7 10 40 74 65 55 42 32 30 25 18 9 17 24 27 28 39 43 42 39 35 32 31 30 32 33 32 30 27 25 24 22 24 24 24 26 32 36 38 39 37 35 33 31 28 26 24 21 20 19 17 17 18 19 19 18 16 15 14 14 13 11 9 7 6 6 8 11 13 13 14 15
111 106 98 91 88 87 85 77 75 75 76 78 79 77 66 57 55 54 53 50 53 71 85 67 64 68 73 63 42 15 3 354 1 39 59 57 62 65 49 19 7 358 346 345 360 19 27 35 38 39 38 33 30 28 27 32 33 32 30 29 28 24 21 22 21 22 26 32 36 39 39 37 36 34 33 29 27 25 22 21 19 17 14 15 16 16 16 14 13 13 12 12 11 9 8 7 7 9 12 15 15 14 15
117 116 111 104 96 95 99 95 89 87 88 84 78 68 59 53 49 46 44 40 36 37 76 75 63 60 73 74 58 29 11 356 11 56 75 57 71 115 130 70 12 358 346 339 347 4 26 29 30 30 31 27 25 24 24 31 33 33 30 30 28 25 20 20 19 21 28 33 35 37 37 37 36 35 34 32 29 27 24 22 19 17 15 15 15 14 14 11 11 10 11 11 10 9 9 8 8 9 12 16 16 15 15
122 120 118 111 107 105 109 97 90 91 96 87 74 62 54 52 47 43 42 43 38 36 55 86 83 61 53 69 59 38 23 14 22 50 107 115 127 135 134 88 53 21 354 352 351 355 11 12 11 13 18 15 13 15 18 28 32 33 31 30 27 24 22 21 20 22 30 34 35 35 35 35 35 35 35 33 31 28 25 23 20 18 16 15 14 13 12 10 8 8 9 9 9 8 8 9 9 10 11 15 16 16 15
125 123 119 116 115 115 109 92 83 80 88 89 83 73 60 56 51 44 37 41 41 40 43 70 94 94 48 43 38 33 26 25 25 34 95 126 124 81 43 62 64 54 360 21 4 354 356 359 356 353 357 2 3 6 18 28 29 28 30 30 27 23 22 21 21 26 33 33 32 32 32 33 33 34 34 33 31 28 25 23 21 19 16 14 14 13 12 9 8 8 9 9 8 7 7 9 10 11 11 14 15 15 15
126 126 123 121 120 117 106 99 90 80 77 92 94 89 75 64 57 49 40 39 39 41 49 50 75 93 82 55 41 34 25 26 28 35 54 112 121 104 59 70 95 151 167 111 64 10 332 331 329 325 321 339 348 359 20 31 28 24 28 29 26 23 22 22 24 29 34 32 30 29 30 31 32 32 33 32 30 28 25 23 22 20 17 15 14 13 11 8 8 9 9 8 7 5 5 8 10 12 13 14 15 15 15
128 129 127 124 120 114 110 108 101 92 80 90 93 91 85 76 69 61 54 49 44 48 64 50 57 79 98 86 70 48 32 23 27 38 47 61 107 124 124 117 96 64 23 50 73 111 273 293 305 310 304 329 347 1 13 19 19 19 24 25 24 22 22 23 27 31 33 30 29 30 30 31 31 31 31 31 29 27 25 23 21 20 18 15 14 13 10 8 8 9 10 8 6 4 3 8 10 12 13 15 16 16 15
131 129 124 122 119 117 114 109 105 101 93 91 92 91 91 90 87 79 68 61 52 52 69 67 62 69 104 108 102 84 55 32 27 33 47 41 44 71 126 132 128 107 63 44 46 227 233 254 336 340 313 326 353 3 353 359 6 14 19 21 23 23 23 26 29 31 30 27 27 29 31 32 33 32 30 28 27 27 25 23 21 19 17 16 14 13 11 10 10 9 9 8 6 5 4 8 10 12 13 15 16 16 15
131 130 128 125 123 120 116 111 109 107 100 96 95 96 97 97 88 75 63 56 47 43 56 82 76 66 68 112 116 106 84 57 35 29 42 45 41 40 64 109 141 154 146 158 185 212 235 119 82 39 311 314 326 341 316 330 345 3 18 17 17 19 23 28 30 31 30 28 27 28 29 33 33 32 29 27 26 26 24 22 21 19 17 16 15 13 11 10 9 9 7 8 6 5 6 9 10 12 13 15 16 16 16
132 133 133 129 124 120 118 117 116 112 107 102 100 98 95 88 82 76 69 63 53 40 31 78 83 77 61 90 105 102 89 80 52 24 21 41 45 44 47 54 74 108 117 138 153 158 154 87 92 119 265 323 320 311 301 330 341 349 4 9 10 11 18 26 29 29 28 28 28 27 29 32 33 32 30 27 26 25 23 21 19 18 17 16 15 13 12 10 9 9 7 8 7 7 8 10 11 11 13 15 16 16 16
133 133 131 128 122 118 118 118 117 115 113 110 104 99 94 88 87 87 85 76 65 53 55 67 78 87 92 92 93 93 90 90 79 12 360 29 35 37 40 45 50 54 56 62 90 123 134 123 131 142 124 51 343 326 332 348 349 345 344 353 357 2 12 24 27 27 27 26 26 28 30 30 32 34 34 29 26 24 23 20 19 17 17 16 14 12 11 10 9 8 7 8 8 8 9 10 11 11 12 14 15 16 16
134 133 129 125 122 119 118 116 114 114 117 113 108 103 102 102 102 100 93 77 59 55 65 74 77 81 86 90 93 97 103 100 78 324 34 52 35 23 32 48 53 54 58 52 53 69 98 121 139 145 130 128 119 336 333 329 328 325 320 340 347 352 358 16 23 24 26 25 27 29 31 30 31 34 35 31 28 25 23 20 18 17 16 15 14 11 10 9 8 8 7 8 8 9 9 10 11 11 12 13 14 15 15
138 138 134 129 126 122 120 117 115 115 116 113 109 107 109 114 115 107 97 86 68 57 58 67 67 60 55 68 82 97 114 110 85 38 85 97 82 29 25 49 54 54 57 51 49 52 63 68 92 123 131 134 132 116 338 320 325 330 330 336 344 349 346 359 10 16 22 29 30 31 32 32 33 34 34 32 29 27 24 20 17 15 14 14 12 11 9 9 8 8 7 7 7 8 9 10 11 11 11 12 13 14 15